Year,Month,Day,Hour,Minute,Value (Times are PST for temperature in C)
2009,08,13,00,00,11.50
2009,08,13,00,01,11.40
2009,08,13,00,02,11.40
2009,08,13,00,03,11.40
2009,08,13,00,04,11.40
2009,08,13,00,05,11.30
2009,08,13,00,06,11.30
2009,08,13,00,07,11.30
2009,08,13,00,08,11.30
2009,08,13,00,09,11.30
2009,08,13,00,10,11.30
2009,08,13,00,11,11.30
2009,08,13,00,12,11.20
2009,08,13,00,13,11.20
2009,08,13,00,14,11.20
2009,08,13,00,15,11.20
2009,08,13,00,16,11.20
2009,08,13,00,17,11.10
2009,08,13,00,18,11.10
2009,08,13,00,19,11.10
2009,08,13,00,20,11.10
2009,08,13,00,21,11.10
2009,08,13,00,22,11.10
2009,08,13,00,23,11.00
2009,08,13,00,24,11.00
2009,08,13,00,25,11.00
2009,08,13,00,26,10.90
2009,08,13,00,27,10.90
2009,08,13,00,28,10.90
2009,08,13,00,29,10.90
2009,08,13,00,30,10.90
2009,08,13,00,31,10.80
2009,08,13,00,32,10.80
2009,08,13,00,33,10.80
2009,08,13,00,34,10.80
2009,08,13,00,35,10.80
2009,08,13,00,36,10.80
2009,08,13,00,37,10.70
2009,08,13,00,38,10.70
2009,08,13,00,39,10.70
2009,08,13,00,40,10.70
2009,08,13,00,41,10.60
2009,08,13,00,42,10.60
2009,08,13,00,43,10.60
2009,08,13,00,44,10.60
2009,08,13,00,45,10.60
2009,08,13,00,46,10.60
2009,08,13,00,47,10.50
2009,08,13,00,48,10.50
2009,08,13,00,49,10.50
2009,08,13,00,50,10.50
2009,08,13,00,51,10.50
2009,08,13,00,52,10.40
2009,08,13,00,53,10.40
2009,08,13,00,54,10.40
2009,08,13,00,55,10.40
2009,08,13,00,56,10.40
2009,08,13,00,57,10.40
2009,08,13,00,58,10.40
2009,08,13,00,59,10.40
2009,08,13,01,00,10.40
2009,08,13,01,01,10.40
2009,08,13,01,02,10.40
2009,08,13,01,03,10.40
2009,08,13,01,04,10.40
2009,08,13,01,05,10.40
2009,08,13,01,06,10.40
2009,08,13,01,07,10.40
2009,08,13,01,08,10.40
2009,08,13,01,09,10.40
2009,08,13,01,10,10.40
2009,08,13,01,11,10.40
2009,08,13,01,12,10.40
2009,08,13,01,13,10.40
2009,08,13,01,14,10.40
2009,08,13,01,15,10.50
2009,08,13,01,16,10.50
2009,08,13,01,17,10.50
2009,08,13,01,18,10.50
2009,08,13,01,19,10.50
2009,08,13,01,20,10.60
2009,08,13,01,21,10.60
2009,08,13,01,22,10.60
2009,08,13,01,23,10.60
2009,08,13,01,24,10.70
2009,08,13,01,25,10.70
2009,08,13,01,26,10.70
2009,08,13,01,27,10.70
2009,08,13,01,28,10.70
2009,08,13,01,29,10.70
2009,08,13,01,30,10.70
2009,08,13,01,31,10.70
2009,08,13,01,32,10.70
2009,08,13,01,33,10.70
2009,08,13,01,34,10.70
2009,08,13,01,35,10.70
2009,08,13,01,36,10.70
2009,08,13,01,37,10.70
2009,08,13,01,38,10.70
2009,08,13,01,39,10.70
2009,08,13,01,40,10.70
2009,08,13,01,41,10.60
2009,08,13,01,42,10.60
2009,08,13,01,43,10.60
2009,08,13,01,44,10.60
2009,08,13,01,45,10.60
2009,08,13,01,46,10.60
2009,08,13,01,47,10.60
2009,08,13,01,48,10.60
2009,08,13,01,49,10.60
2009,08,13,01,50,10.50
2009,08,13,01,51,10.50
2009,08,13,01,52,10.50
2009,08,13,01,53,10.50
2009,08,13,01,54,10.50
2009,08,13,01,55,10.50
2009,08,13,01,56,10.50
2009,08,13,01,57,10.50
2009,08,13,01,58,10.50
2009,08,13,01,59,10.50
2009,08,13,02,00,10.50
2009,08,13,02,01,10.40
2009,08,13,02,02,10.40
2009,08,13,02,03,10.40
2009,08,13,02,04,10.40
2009,08,13,02,05,10.40
2009,08,13,02,06,10.40
2009,08,13,02,07,10.40
2009,08,13,02,08,10.40
2009,08,13,02,09,10.40
2009,08,13,02,10,10.40
2009,08,13,02,11,10.40
2009,08,13,02,12,10.40
2009,08,13,02,13,10.30
2009,08,13,02,14,10.30
2009,08,13,02,15,10.30
2009,08,13,02,16,10.30
2009,08,13,02,17,10.30
2009,08,13,02,18,10.30
2009,08,13,02,19,10.30
2009,08,13,02,20,10.30
2009,08,13,02,21,10.30
2009,08,13,02,22,10.20
2009,08,13,02,23,10.20
2009,08,13,02,24,10.20
2009,08,13,02,25,10.20
2009,08,13,02,26,10.20
2009,08,13,02,27,10.20
2009,08,13,02,28,10.20
2009,08,13,02,29,10.20
2009,08,13,02,30,10.20
2009,08,13,02,31,10.20
2009,08,13,02,32,10.20
2009,08,13,02,33,10.20
2009,08,13,02,34,10.20
2009,08,13,02,35,10.30
2009,08,13,02,36,10.30
2009,08,13,02,37,10.30
2009,08,13,02,38,10.30
2009,08,13,02,39,10.30
2009,08,13,02,40,10.30
2009,08,13,02,41,10.30
2009,08,13,02,42,10.30
2009,08,13,02,43,10.30
2009,08,13,02,44,10.30
2009,08,13,02,45,10.30
2009,08,13,02,46,10.30
2009,08,13,02,47,10.30
2009,08,13,02,48,10.40
2009,08,13,02,49,10.40
2009,08,13,02,50,10.40
2009,08,13,02,51,10.40
2009,08,13,02,52,10.40
2009,08,13,02,53,10.40
2009,08,13,02,54,10.50
2009,08,13,02,55,10.50
2009,08,13,02,56,10.50
2009,08,13,02,57,10.50
2009,08,13,02,58,10.50
2009,08,13,02,59,10.50
2009,08,13,03,00,10.60
2009,08,13,03,01,10.60
2009,08,13,03,02,10.60
2009,08,13,03,03,10.60
2009,08,13,03,04,10.60
2009,08,13,03,05,10.60
2009,08,13,03,06,10.60
2009,08,13,03,07,10.60
2009,08,13,03,08,10.60
2009,08,13,03,09,10.60
2009,08,13,03,10,10.60
2009,08,13,03,11,10.60
2009,08,13,03,12,10.60
2009,08,13,03,13,10.60
2009,08,13,03,14,10.50
2009,08,13,03,15,10.50
2009,08,13,03,16,10.50
2009,08,13,03,17,10.50
2009,08,13,03,18,10.50
2009,08,13,03,19,10.50
2009,08,13,03,20,10.50
2009,08,13,03,21,10.50
2009,08,13,03,22,10.50
2009,08,13,03,23,10.50
2009,08,13,03,24,10.50
2009,08,13,03,25,10.50
2009,08,13,03,26,10.50
2009,08,13,03,27,10.50
2009,08,13,03,28,10.60
2009,08,13,03,29,10.60
2009,08,13,03,30,10.60
2009,08,13,03,31,10.60
2009,08,13,03,32,10.60
2009,08,13,03,33,10.60
2009,08,13,03,34,10.60
2009,08,13,03,35,10.60
2009,08,13,03,36,10.60
2009,08,13,03,37,10.60
2009,08,13,03,38,10.60
2009,08,13,03,39,10.60
2009,08,13,03,40,10.60
2009,08,13,03,41,10.60
2009,08,13,03,42,10.60
2009,08,13,03,43,10.50
2009,08,13,03,44,10.50
2009,08,13,03,45,10.50
2009,08,13,03,46,10.50
2009,08,13,03,47,10.50
2009,08,13,03,48,10.50
2009,08,13,03,49,10.40
2009,08,13,03,50,10.40
2009,08,13,03,51,10.40
2009,08,13,03,52,10.40
2009,08,13,03,53,10.40
2009,08,13,03,54,10.40
2009,08,13,03,55,10.40
2009,08,13,03,56,10.40
2009,08,13,03,57,10.40
2009,08,13,03,58,10.40
2009,08,13,03,59,10.40
2009,08,13,04,00,10.40
2009,08,13,04,01,10.40
2009,08,13,04,02,10.40
2009,08,13,04,03,10.40
2009,08,13,04,04,10.40
2009,08,13,04,05,10.50
2009,08,13,04,06,10.50
2009,08,13,04,07,10.50
2009,08,13,04,08,10.50
2009,08,13,04,09,10.50
2009,08,13,04,10,10.50
2009,08,13,04,11,10.60
2009,08,13,04,12,10.60
2009,08,13,04,13,10.60
2009,08,13,04,14,10.60
2009,08,13,04,15,10.60
2009,08,13,04,16,10.60
2009,08,13,04,17,10.70
2009,08,13,04,18,10.70
2009,08,13,04,19,10.70
2009,08,13,04,20,10.70
2009,08,13,04,21,10.70
2009,08,13,04,22,10.70
2009,08,13,04,23,10.70
2009,08,13,04,24,10.70
2009,08,13,04,25,10.70
2009,08,13,04,26,10.70
2009,08,13,04,27,10.70
2009,08,13,04,28,10.70
2009,08,13,04,29,10.70
2009,08,13,04,30,10.70
2009,08,13,04,31,10.80
2009,08,13,04,32,10.80
2009,08,13,04,33,10.80
2009,08,13,04,34,10.80
2009,08,13,04,35,10.80
2009,08,13,04,36,10.80
2009,08,13,04,37,10.80
2009,08,13,04,38,10.80
2009,08,13,04,39,10.80
2009,08,13,04,40,10.80
2009,08,13,04,41,10.80
2009,08,13,04,42,10.80
2009,08,13,04,43,10.90
2009,08,13,04,44,10.90
2009,08,13,04,45,10.90
2009,08,13,04,46,10.90
2009,08,13,04,47,10.90
2009,08,13,04,48,10.90
2009,08,13,04,49,10.90
2009,08,13,04,50,10.90
2009,08,13,04,51,10.90
2009,08,13,04,52,10.90
2009,08,13,04,53,10.90
2009,08,13,04,54,10.90
2009,08,13,04,55,10.90
2009,08,13,04,56,10.90
2009,08,13,04,57,11.00
2009,08,13,04,58,11.00
2009,08,13,04,59,11.00
2009,08,13,05,00,11.00
2009,08,13,05,01,11.00
2009,08,13,05,02,11.00
2009,08,13,05,03,11.00
2009,08,13,05,04,11.00
2009,08,13,05,05,11.00
2009,08,13,05,06,11.00
2009,08,13,05,07,11.00
2009,08,13,05,08,11.00
2009,08,13,05,09,11.10
2009,08,13,05,10,11.10
2009,08,13,05,11,11.10
2009,08,13,05,12,11.10
2009,08,13,05,13,11.10
2009,08,13,05,14,11.10
2009,08,13,05,15,11.10
2009,08,13,05,16,11.10
2009,08,13,05,17,11.10
2009,08,13,05,18,11.10
2009,08,13,05,19,11.10
2009,08,13,05,20,11.10
2009,08,13,05,21,11.10
2009,08,13,05,22,11.10
2009,08,13,05,23,11.10
2009,08,13,05,24,11.10
2009,08,13,05,25,11.10
2009,08,13,05,26,11.10
2009,08,13,05,27,11.10
2009,08,13,05,28,11.10
2009,08,13,05,29,11.10
2009,08,13,05,30,11.10
2009,08,13,05,31,11.10
2009,08,13,05,32,11.10
2009,08,13,05,33,11.20
2009,08,13,05,34,11.20
2009,08,13,05,35,11.20
2009,08,13,05,36,11.20
2009,08,13,05,37,11.20
2009,08,13,05,38,11.20
2009,08,13,05,39,11.20
2009,08,13,05,40,11.20
2009,08,13,05,41,11.20
2009,08,13,05,42,11.20
2009,08,13,05,43,11.20
2009,08,13,05,44,11.20
2009,08,13,05,45,11.20
2009,08,13,05,46,11.20
2009,08,13,05,47,11.20
2009,08,13,05,48,11.20
2009,08,13,05,49,11.20
2009,08,13,05,50,11.20
2009,08,13,05,51,11.20
2009,08,13,05,52,11.20
2009,08,13,05,53,11.20
2009,08,13,05,54,11.20
2009,08,13,05,55,11.20
2009,08,13,05,56,11.20
2009,08,13,05,57,11.30
2009,08,13,05,58,11.30
2009,08,13,05,59,11.30
2009,08,13,06,00,11.30
2009,08,13,06,01,11.30
2009,08,13,06,02,11.30
2009,08,13,06,03,11.30
2009,08,13,06,04,11.30
2009,08,13,06,05,11.30
2009,08,13,06,06,11.30
2009,08,13,06,07,11.30
2009,08,13,06,08,11.30
2009,08,13,06,09,11.30
2009,08,13,06,10,11.30
2009,08,13,06,11,11.30
2009,08,13,06,12,11.30
2009,08,13,06,13,11.30
2009,08,13,06,14,11.30
2009,08,13,06,15,11.30
2009,08,13,06,16,11.30
2009,08,13,06,17,11.30
2009,08,13,06,18,11.30
2009,08,13,06,19,11.30
2009,08,13,06,20,11.30
2009,08,13,06,21,11.30
2009,08,13,06,22,11.30
2009,08,13,06,23,11.30
2009,08,13,06,24,11.30
2009,08,13,06,25,11.30
2009,08,13,06,26,11.30
2009,08,13,06,27,11.30
2009,08,13,06,28,11.30
2009,08,13,06,29,11.30
2009,08,13,06,30,11.30
2009,08,13,06,31,11.30
2009,08,13,06,32,11.30
2009,08,13,06,33,11.30
2009,08,13,06,34,11.30
2009,08,13,06,35,11.30
2009,08,13,06,36,11.30
2009,08,13,06,37,11.30
2009,08,13,06,38,11.30
2009,08,13,06,39,11.30
2009,08,13,06,40,11.30
2009,08,13,06,41,11.30
2009,08,13,06,42,11.30
2009,08,13,06,43,11.30
2009,08,13,06,44,11.30
2009,08,13,06,45,11.30
2009,08,13,06,46,11.30
2009,08,13,06,47,11.30
2009,08,13,06,48,11.30
2009,08,13,06,49,11.30
2009,08,13,06,50,11.30
2009,08,13,06,51,11.30
2009,08,13,06,52,11.30
2009,08,13,06,53,11.30
2009,08,13,06,54,11.30
2009,08,13,06,55,11.30
2009,08,13,06,56,11.30
2009,08,13,06,57,11.40
2009,08,13,06,58,11.40
2009,08,13,06,59,11.40
2009,08,13,07,00,11.40
2009,08,13,07,01,11.40
2009,08,13,07,02,11.40
2009,08,13,07,03,11.40
2009,08,13,07,04,11.40
2009,08,13,07,05,11.40
2009,08,13,07,06,11.40
2009,08,13,07,07,11.40
2009,08,13,07,08,11.40
2009,08,13,07,09,11.40
2009,08,13,07,10,11.40
2009,08,13,07,11,11.50
2009,08,13,07,12,11.50
2009,08,13,07,13,11.50
2009,08,13,07,14,11.50
2009,08,13,07,15,11.50
2009,08,13,07,16,11.50
2009,08,13,07,17,11.50
2009,08,13,07,18,11.50
2009,08,13,07,19,11.60
2009,08,13,07,20,11.60
2009,08,13,07,21,11.60
2009,08,13,07,22,11.60
2009,08,13,07,23,11.60
2009,08,13,07,24,11.60
2009,08,13,07,25,11.60
2009,08,13,07,26,11.60
2009,08,13,07,27,11.60
2009,08,13,07,28,11.60
2009,08,13,07,29,11.70
2009,08,13,07,30,11.70
2009,08,13,07,31,11.70
2009,08,13,07,32,11.70
2009,08,13,07,33,11.70
2009,08,13,07,34,11.70
2009,08,13,07,35,11.80
2009,08,13,07,36,11.80
2009,08,13,07,37,11.80
2009,08,13,07,38,11.80
2009,08,13,07,39,11.80
2009,08,13,07,40,11.90
2009,08,13,07,41,11.90
2009,08,13,07,42,11.90
2009,08,13,07,43,11.90
2009,08,13,07,44,12.00
2009,08,13,07,45,12.00
2009,08,13,07,46,12.00
2009,08,13,07,47,12.10
2009,08,13,07,48,12.10
2009,08,13,07,49,12.10
2009,08,13,07,50,12.20
2009,08,13,07,51,12.20
2009,08,13,07,52,12.20
2009,08,13,07,53,12.20
2009,08,13,07,54,12.30
2009,08,13,07,55,12.30
2009,08,13,07,56,12.30
2009,08,13,07,57,12.30
2009,08,13,07,58,12.30
2009,08,13,07,59,12.30
2009,08,13,08,00,12.40
2009,08,13,08,01,12.40
2009,08,13,08,02,12.40
2009,08,13,08,03,12.40
2009,08,13,08,04,12.50
2009,08,13,08,05,12.50
2009,08,13,08,06,12.60
2009,08,13,08,07,12.60
2009,08,13,08,08,12.60
2009,08,13,08,09,12.60
2009,08,13,08,10,12.70
2009,08,13,08,11,12.70
2009,08,13,08,12,12.70
2009,08,13,08,13,12.70
2009,08,13,08,14,12.70
2009,08,13,08,15,12.80
2009,08,13,08,16,12.80
2009,08,13,08,17,12.80
2009,08,13,08,18,12.80
2009,08,13,08,19,12.90
2009,08,13,08,20,12.90
2009,08,13,08,21,12.90
2009,08,13,08,22,13.00
2009,08,13,08,23,13.10
2009,08,13,08,24,13.10
2009,08,13,08,25,13.10
2009,08,13,08,26,13.20
2009,08,13,08,27,13.20
2009,08,13,08,28,13.30
2009,08,13,08,29,13.30
2009,08,13,08,30,13.30
2009,08,13,08,31,13.40
2009,08,13,08,32,13.40
2009,08,13,08,33,13.50
2009,08,13,08,34,13.60
2009,08,13,08,35,13.60
2009,08,13,08,36,13.70
2009,08,13,08,37,13.80
2009,08,13,08,38,13.90
2009,08,13,08,39,13.90
2009,08,13,08,40,14.00
2009,08,13,08,41,14.10
2009,08,13,08,42,14.20
2009,08,13,08,43,14.20
2009,08,13,08,44,14.30
2009,08,13,08,45,14.40
2009,08,13,08,46,14.50
2009,08,13,08,47,14.60
2009,08,13,08,48,14.80
2009,08,13,08,49,14.90
2009,08,13,08,50,15.00
2009,08,13,08,51,15.00
2009,08,13,08,52,15.00
2009,08,13,08,53,15.00
2009,08,13,08,54,15.10
2009,08,13,08,55,15.20
2009,08,13,08,56,15.20
2009,08,13,08,57,15.30
2009,08,13,08,58,15.30
2009,08,13,08,59,15.40
2009,08,13,09,00,15.40
2009,08,13,09,01,15.50
2009,08,13,09,02,15.50
2009,08,13,09,03,15.60
2009,08,13,09,04,15.60
2009,08,13,09,05,15.70
2009,08,13,09,06,15.70
2009,08,13,09,07,15.80
2009,08,13,09,08,15.80
2009,08,13,09,09,15.80
2009,08,13,09,10,15.90
2009,08,13,09,11,15.90
2009,08,13,09,12,15.90
2009,08,13,09,13,16.00
2009,08,13,09,14,16.00
2009,08,13,09,15,16.10
2009,08,13,09,16,16.10
2009,08,13,09,17,16.10
2009,08,13,09,18,16.10
2009,08,13,09,19,16.20
2009,08,13,09,20,16.20
2009,08,13,09,21,16.20
2009,08,13,09,22,16.20
2009,08,13,09,23,16.30
2009,08,13,09,24,16.30
2009,08,13,09,25,16.30
2009,08,13,09,26,16.30
2009,08,13,09,27,16.40
2009,08,13,09,28,16.40
2009,08,13,09,29,16.50
2009,08,13,09,30,16.60
2009,08,13,09,31,16.60
2009,08,13,09,32,16.60
2009,08,13,09,33,16.70
2009,08,13,09,34,16.70
2009,08,13,09,35,16.70
2009,08,13,09,36,16.80
2009,08,13,09,37,16.80
2009,08,13,09,38,16.80
2009,08,13,09,39,16.80
2009,08,13,09,40,16.80
2009,08,13,09,41,16.80
2009,08,13,09,42,16.90
2009,08,13,09,43,16.90
2009,08,13,09,44,16.90
2009,08,13,09,45,17.00
2009,08,13,09,46,17.00
2009,08,13,09,47,17.00
2009,08,13,09,48,17.00
2009,08,13,09,49,17.10
2009,08,13,09,50,17.10
2009,08,13,09,51,17.10
2009,08,13,09,52,17.10
2009,08,13,09,53,17.20
2009,08,13,09,54,17.20
2009,08,13,09,55,17.20
2009,08,13,09,56,17.20
2009,08,13,09,57,17.20
2009,08,13,09,58,17.20
2009,08,13,09,59,17.20
2009,08,13,10,00,17.20
2009,08,13,10,01,17.20
2009,08,13,10,02,17.20
2009,08,13,10,03,17.20
2009,08,13,10,04,17.10
2009,08,13,10,05,17.10
2009,08,13,10,06,17.10
2009,08,13,10,07,17.10
2009,08,13,10,08,17.10
2009,08,13,10,09,17.10
2009,08,13,10,10,17.10
2009,08,13,10,11,17.10
2009,08,13,10,12,17.10
2009,08,13,10,13,17.10
2009,08,13,10,14,17.10
2009,08,13,10,15,17.10
2009,08,13,10,16,17.10
2009,08,13,10,17,17.10
2009,08,13,10,18,17.10
2009,08,13,10,19,17.10
2009,08,13,10,20,17.10
2009,08,13,10,21,17.10
2009,08,13,10,22,17.00
2009,08,13,10,23,17.00
2009,08,13,10,24,17.00
2009,08,13,10,25,16.90
2009,08,13,10,26,16.90
2009,08,13,10,27,16.80
2009,08,13,10,28,16.80
2009,08,13,10,29,16.80
2009,08,13,10,30,16.70
2009,08,13,10,31,16.70
2009,08,13,10,32,16.70
2009,08,13,10,33,16.70
2009,08,13,10,34,16.70
2009,08,13,10,35,16.70
2009,08,13,10,36,16.70
2009,08,13,10,37,16.70
2009,08,13,10,38,16.70
2009,08,13,10,39,16.70
2009,08,13,10,40,16.80
2009,08,13,10,41,16.80
2009,08,13,10,42,16.80
2009,08,13,10,43,16.80
2009,08,13,10,44,16.80
2009,08,13,10,45,16.80
2009,08,13,10,46,16.80
2009,08,13,10,47,16.80
2009,08,13,10,48,16.80
2009,08,13,10,49,16.80
2009,08,13,10,50,16.90
2009,08,13,10,51,16.90
2009,08,13,10,52,16.90
2009,08,13,10,53,16.90
2009,08,13,10,54,17.00
2009,08,13,10,55,17.00
2009,08,13,10,56,17.00
2009,08,13,10,57,16.90
2009,08,13,10,58,16.90
2009,08,13,10,59,16.90
2009,08,13,11,00,16.90
2009,08,13,11,01,16.90
2009,08,13,11,02,16.80
2009,08,13,11,03,16.80
2009,08,13,11,04,16.80
2009,08,13,11,05,16.80
2009,08,13,11,06,16.80
2009,08,13,11,07,16.90
2009,08,13,11,08,16.90
2009,08,13,11,09,16.90
2009,08,13,11,10,16.90
2009,08,13,11,11,16.90
2009,08,13,11,12,16.90
2009,08,13,11,13,16.90
2009,08,13,11,14,16.90
2009,08,13,11,15,16.90
2009,08,13,11,16,16.90
2009,08,13,11,17,16.90
2009,08,13,11,18,16.90
2009,08,13,11,19,16.90
2009,08,13,11,20,16.90
2009,08,13,11,21,16.90
2009,08,13,11,22,16.90
2009,08,13,11,23,16.90
2009,08,13,11,24,16.90
2009,08,13,11,25,16.90
2009,08,13,11,26,16.90
2009,08,13,11,27,16.90
2009,08,13,11,28,16.90
2009,08,13,11,29,16.90
2009,08,13,11,30,16.90
2009,08,13,11,31,16.80
2009,08,13,11,32,16.80
2009,08,13,11,33,16.80
2009,08,13,11,34,16.70
2009,08,13,11,35,16.70
2009,08,13,11,36,16.70
2009,08,13,11,37,16.70
2009,08,13,11,38,16.70
2009,08,13,11,39,16.70
2009,08,13,11,40,16.60
2009,08,13,11,41,16.60
2009,08,13,11,42,16.60
2009,08,13,11,43,16.60
2009,08,13,11,44,16.60
2009,08,13,11,45,16.60
2009,08,13,11,46,16.60
2009,08,13,11,47,16.60
2009,08,13,11,48,16.60
2009,08,13,11,49,16.50
2009,08,13,11,50,16.40
2009,08,13,11,51,16.40
2009,08,13,11,52,16.40
2009,08,13,11,53,16.30
2009,08,13,11,54,16.30
2009,08,13,11,55,16.30
2009,08,13,11,56,16.30
2009,08,13,11,57,16.30
2009,08,13,11,58,16.30
2009,08,13,11,59,16.30
2009,08,13,12,00,16.30
2009,08,13,12,01,16.30
2009,08,13,12,02,16.30
2009,08,13,12,03,16.30
2009,08,13,12,04,16.30
2009,08,13,12,05,16.30
2009,08,13,12,06,16.30
2009,08,13,12,07,16.30
2009,08,13,12,08,16.20
2009,08,13,12,09,16.20
2009,08,13,12,10,16.20
2009,08,13,12,11,16.20
2009,08,13,12,12,16.30
2009,08,13,12,13,16.30
2009,08,13,12,14,16.30
2009,08,13,12,15,16.30
2009,08,13,12,16,16.30
2009,08,13,12,17,16.30
2009,08,13,12,18,16.30
2009,08,13,12,19,16.30
2009,08,13,12,20,16.30
2009,08,13,12,21,16.30
2009,08,13,12,22,16.30
2009,08,13,12,23,16.30
2009,08,13,12,24,16.30
2009,08,13,12,25,16.30
2009,08,13,12,26,16.30
2009,08,13,12,27,16.30
2009,08,13,12,28,16.30
2009,08,13,12,29,16.30
2009,08,13,12,30,16.30
2009,08,13,12,31,16.30
2009,08,13,12,32,16.30
2009,08,13,12,33,16.30
2009,08,13,12,34,16.30
2009,08,13,12,35,16.30
2009,08,13,12,36,16.30
2009,08,13,12,37,16.30
2009,08,13,12,38,16.30
2009,08,13,12,39,16.30
2009,08,13,12,40,16.30
2009,08,13,12,41,16.30
2009,08,13,12,42,16.30
2009,08,13,12,43,16.30
2009,08,13,12,44,16.30
2009,08,13,12,45,16.40
2009,08,13,12,46,16.40
2009,08,13,12,47,16.40
2009,08,13,12,48,16.50
2009,08,13,12,49,16.50
2009,08,13,12,50,16.60
2009,08,13,12,51,16.60
2009,08,13,12,52,16.70
2009,08,13,12,53,16.70
2009,08,13,12,54,16.80
2009,08,13,12,55,16.80
2009,08,13,12,56,16.90
2009,08,13,12,57,16.90
2009,08,13,12,58,17.00
2009,08,13,12,59,17.00
2009,08,13,13,00,17.10
2009,08,13,13,01,17.10
2009,08,13,13,02,17.00
2009,08,13,13,03,17.00
2009,08,13,13,04,16.90
2009,08,13,13,05,16.90
2009,08,13,13,06,16.90
2009,08,13,13,07,16.80
2009,08,13,13,08,16.80
2009,08,13,13,09,16.80
2009,08,13,13,10,16.80
2009,08,13,13,11,16.80
2009,08,13,13,12,16.80
2009,08,13,13,13,16.80
2009,08,13,13,14,16.80
2009,08,13,13,15,16.80
2009,08,13,13,16,16.80
2009,08,13,13,17,16.90
2009,08,13,13,18,16.90
2009,08,13,13,19,16.80
2009,08,13,13,20,16.80
2009,08,13,13,21,16.80
2009,08,13,13,22,16.80
2009,08,13,13,23,16.80
2009,08,13,13,24,16.70
2009,08,13,13,25,16.70
2009,08,13,13,26,16.70
2009,08,13,13,27,16.70
2009,08,13,13,28,16.60
2009,08,13,13,29,16.70
2009,08,13,13,30,16.70
2009,08,13,13,31,16.70
2009,08,13,13,32,16.70
2009,08,13,13,33,16.70
2009,08,13,13,34,16.70
2009,08,13,13,35,16.70
2009,08,13,13,36,16.70
2009,08,13,13,37,16.60
2009,08,13,13,38,16.60
2009,08,13,13,39,16.60
2009,08,13,13,40,16.60
2009,08,13,13,41,16.60
2009,08,13,13,42,16.60
2009,08,13,13,43,16.60
2009,08,13,13,44,16.60
2009,08,13,13,45,16.60
2009,08,13,13,46,16.60
2009,08,13,13,47,16.60
2009,08,13,13,48,16.50
2009,08,13,13,49,16.50
2009,08,13,13,50,16.40
2009,08,13,13,51,16.40
2009,08,13,13,52,16.40
2009,08,13,13,53,16.40
2009,08,13,13,54,16.40
2009,08,13,13,55,16.40
2009,08,13,13,56,16.40
2009,08,13,13,57,16.40
2009,08,13,13,58,16.40
2009,08,13,13,59,16.40
2009,08,13,14,00,16.40
2009,08,13,14,01,16.40
2009,08,13,14,02,16.40
2009,08,13,14,03,16.30
2009,08,13,14,04,16.30
2009,08,13,14,05,16.30
2009,08,13,14,06,16.30
2009,08,13,14,07,16.30
2009,08,13,14,08,16.30
2009,08,13,14,09,16.20
2009,08,13,14,10,16.20
2009,08,13,14,11,16.20
2009,08,13,14,12,16.20
2009,08,13,14,13,16.10
2009,08,13,14,14,16.10
2009,08,13,14,15,16.10
2009,08,13,14,16,16.00
2009,08,13,14,17,16.00
2009,08,13,14,18,16.00
2009,08,13,14,19,16.00
2009,08,13,14,20,16.00
2009,08,13,14,21,16.10
2009,08,13,14,22,16.10
2009,08,13,14,23,16.10
2009,08,13,14,24,16.20
2009,08,13,14,25,16.30
2009,08,13,14,26,16.30
2009,08,13,14,27,16.40
2009,08,13,14,28,16.40
2009,08,13,14,29,16.50
2009,08,13,14,30,16.50
2009,08,13,14,31,16.60
2009,08,13,14,32,16.60
2009,08,13,14,33,16.70
2009,08,13,14,34,16.70
2009,08,13,14,35,16.70
2009,08,13,14,36,16.70
2009,08,13,14,37,16.80
2009,08,13,14,38,16.80
2009,08,13,14,39,16.80
2009,08,13,14,40,16.80
2009,08,13,14,41,16.80
2009,08,13,14,42,16.80
2009,08,13,14,43,16.80
2009,08,13,14,44,16.80
2009,08,13,14,45,16.80
2009,08,13,14,46,16.80
2009,08,13,14,47,16.80
2009,08,13,14,48,16.80
2009,08,13,14,49,16.80
2009,08,13,14,50,16.80
2009,08,13,14,51,16.80
2009,08,13,14,52,16.80
2009,08,13,14,53,16.80
2009,08,13,14,54,16.70
2009,08,13,14,55,16.70
2009,08,13,14,56,16.70
2009,08,13,14,57,16.70
2009,08,13,14,58,16.70
2009,08,13,14,59,16.60
2009,08,13,15,00,16.60
2009,08,13,15,01,16.50
2009,08,13,15,02,16.40
2009,08,13,15,03,16.40
2009,08,13,15,04,16.30
2009,08,13,15,05,16.30
2009,08,13,15,06,16.20
2009,08,13,15,07,16.20
2009,08,13,15,08,16.20
2009,08,13,15,09,16.20
2009,08,13,15,10,16.10
2009,08,13,15,11,16.10
2009,08,13,15,12,16.00
2009,08,13,15,13,15.90
2009,08,13,15,14,15.80
2009,08,13,15,15,15.70
2009,08,13,15,16,15.60
2009,08,13,15,17,15.60
2009,08,13,15,18,15.60
2009,08,13,15,19,15.50
2009,08,13,15,20,15.50
2009,08,13,15,21,15.40
2009,08,13,15,22,15.40
2009,08,13,15,23,15.40
2009,08,13,15,24,15.40
2009,08,13,15,25,15.40
2009,08,13,15,26,15.40
2009,08,13,15,27,15.40
2009,08,13,15,28,15.40
2009,08,13,15,29,15.40
2009,08,13,15,30,15.40
2009,08,13,15,31,15.40
2009,08,13,15,32,15.30
2009,08,13,15,33,15.30
2009,08,13,15,34,15.20
2009,08,13,15,35,15.20
2009,08,13,15,36,15.00
2009,08,13,15,37,15.00
2009,08,13,15,38,15.00
2009,08,13,15,39,15.00
2009,08,13,15,40,14.80
2009,08,13,15,41,14.70
2009,08,13,15,42,14.60
2009,08,13,15,43,14.60
2009,08,13,15,44,14.50
2009,08,13,15,45,14.40
2009,08,13,15,46,14.30
2009,08,13,15,47,14.30
2009,08,13,15,48,14.20
2009,08,13,15,49,14.10
2009,08,13,15,50,14.10
2009,08,13,15,51,14.00
2009,08,13,15,52,14.00
2009,08,13,15,53,13.90
2009,08,13,15,54,13.90
2009,08,13,15,55,13.80
2009,08,13,15,56,13.80
2009,08,13,15,57,13.80
2009,08,13,15,58,13.70
2009,08,13,15,59,13.70
2009,08,13,16,00,13.70
2009,08,13,16,01,13.70
2009,08,13,16,02,13.70
2009,08,13,16,03,13.60
2009,08,13,16,04,13.60
2009,08,13,16,05,13.60
2009,08,13,16,06,13.60
2009,08,13,16,07,13.50
2009,08,13,16,08,13.50
2009,08,13,16,09,13.40
2009,08,13,16,10,13.40
2009,08,13,16,11,13.40
2009,08,13,16,12,13.40
2009,08,13,16,13,13.30
2009,08,13,16,14,13.30
2009,08,13,16,15,13.30
2009,08,13,16,16,13.30
2009,08,13,16,17,13.30
2009,08,13,16,18,13.30
2009,08,13,16,19,13.30
2009,08,13,16,20,13.30
2009,08,13,16,21,13.30
2009,08,13,16,22,13.30
2009,08,13,16,23,13.30
2009,08,13,16,24,13.30
2009,08,13,16,25,13.30
2009,08,13,16,26,13.30
2009,08,13,16,27,13.30
2009,08,13,16,28,13.30
2009,08,13,16,29,13.30
2009,08,13,16,30,13.30
2009,08,13,16,31,13.30
2009,08,13,16,32,13.30
2009,08,13,16,33,13.30
2009,08,13,16,34,13.30
2009,08,13,16,35,13.30
2009,08,13,16,36,13.30
2009,08,13,16,37,13.30
2009,08,13,16,38,13.30
2009,08,13,16,39,13.30
2009,08,13,16,40,13.30
2009,08,13,16,41,13.30
2009,08,13,16,42,13.30
2009,08,13,16,43,13.30
2009,08,13,16,44,13.30
2009,08,13,16,45,13.30
2009,08,13,16,46,13.30
2009,08,13,16,47,13.30
2009,08,13,16,48,13.30
2009,08,13,16,49,13.30
2009,08,13,16,50,13.30
2009,08,13,16,51,13.30
2009,08,13,16,52,13.30
2009,08,13,16,53,13.30
2009,08,13,16,54,13.30
2009,08,13,16,55,13.30
2009,08,13,16,56,13.40
2009,08,13,16,57,13.40
2009,08,13,16,58,13.40
2009,08,13,16,59,13.30
2009,08,13,17,00,13.30
2009,08,13,17,01,13.30
2009,08,13,17,02,13.30
2009,08,13,17,03,13.30
2009,08,13,17,04,13.30
2009,08,13,17,05,13.30
2009,08,13,17,06,13.40
2009,08,13,17,07,13.40
2009,08,13,17,08,13.40
2009,08,13,17,09,13.40
2009,08,13,17,10,13.40
2009,08,13,17,11,13.40
2009,08,13,17,12,13.40
2009,08,13,17,13,13.40
2009,08,13,17,14,13.40
2009,08,13,17,15,13.40
2009,08,13,17,16,13.40
2009,08,13,17,17,13.40
2009,08,13,17,18,13.50
2009,08,13,17,19,13.50